LECOLEVX

Guest
Details From LECO - A Coruna
To LEVX - Vigo
Flight Number -
Tags generated
Created
Modified
Stats Distance 65 nm / 121 km
Max Altitude 1,100 ft / 335 m
Waypoints 3
Social Downloads 5
Likes 0
Share VATSIM

Download

Looking for another format? Having issues loading an existing format? Contact us
Advertisement - Login to hide

Notes

Basic altitude profile: - Ascent Rate: 2500ft/min - Ascent Speed: 250kts - Cruise Altitude: 35000ft - Cruise Speed: 420kts - Descent Rate: 1500ft/min - Descent Speed: 250kts Options: - Use NATs: yes - Use PACOTS: yes - Use low airways: yes - Use high airways: yes

Route

LECO VGO LEVX

ID Type Via Altitude Latitude Longitude Leg Dist Tot Dist Heading (true) Name
O LECO APT - 0 ft / 0 m 43.30226˚ -8.37709˚ - 0 nm - A Coruna
VGO VOR - 1,100 ft / 335 m 42.32131˚ -8.60164˚ 59 nm 59 nm 190° / 189° VIGO VOR-DME
O LEVX APT - 0 ft / 0 m 42.23189˚ -8.62677˚ 5 nm 65 nm 192° / 192° Vigo

Altitude Profile

Advertisement - Login to hide

LECO

Details ICAO LECO (LCG)
Name A Coruna
Region Spain
Timezone Europe/Madrid (UTC+2.0)
Stats Elevation 323 ft / 98 m (AMSL)
Location 43.302264° -8.377086°
Runways 1
Magnetic Variation 2.332° W

METAR

LECO 262130Z VRB01KT 4000 BR FEW005 OVC020 14/13 Q1016 TEMPO 2000 BR BKN010

Decode

TAF

TAF LECO 262000Z 2621/2721 36005KT 7000 SCT012 BKN020 TX17/2714Z TN12/2706Z TEMPO 2621/2712 3000 -DZ BR BKN010 BKN014 PROB40 TEMPO 2621/2709 1500 DZ BCFG BKN005 PROB30 TEMPO 2621/2706 0600 BCFG VV002

Decode

Departure Runways

ID Width Length Bearing (true) Bearing (mag) Surface Threshold Offset Overrun Length
04 148 ft / 45 m 6,371 ft / 1,942 m 30.94° 33.27° Asphalt 0 ft / 0 m 194 ft / 59 m
22 148 ft / 45 m 6,371 ft / 1,942 m 210.94° 213.27° Asphalt 0 ft / 0 m 203 ft / 62 m

LEVX

Details ICAO LEVX (VGO)
Name Vigo
Region Spain
Timezone Europe/Madrid (UTC+2.0)
Stats Elevation 855 ft / 261 m (AMSL)
Location 42.231894° -8.626774°
Runways 1
Magnetic Variation 2.331° W

METAR

LEVX 262130Z 05003KT 020V080 CAVOK 16/13 Q1015 NOSIG

Decode

TAF

TAF LEVX 261700Z 2618/2718 VRB06KT 9999 SCT020 SCT035 TX18/2713Z TN11/2705Z PROB40 TEMPO 2618/2620 28010KT SCT030TCU TEMPO 2622/2709 4000 BR PROB30 TEMPO 2704/2708 1400 BCFG BKN005 TEMPO 2713/2718 29010KT

Decode

Destination Runways

ID Width Length Bearing (true) Bearing (mag) Surface Threshold Offset Overrun Length
02 148 ft / 45 m 7,905 ft / 2,409 m 11.38° 13.71° Asphalt 0 ft / 0 m 164 ft / 50 m
20 148 ft / 45 m 7,905 ft / 2,409 m 191.38° 193.71° Asphalt 0 ft / 0 m 164 ft / 50 m

Approach Navaids

Runway Type Ident Frequency Range Bearing (true) Bearing (mag) Slope Elevation
20 Localiser VIG 110.90 MHz 18 nm / 33 km 191.38° 193.71° - 855 ft / 261 m (AMSL)
20 Glidescope VIG 110.90 MHz 10 nm / 19 km 191.38° 193.71° 3.00° 855 ft / 261 m (AMSL)
20 DME VIG 110.90 MHz 18 nm / 33 km - - - 833 ft / 254 m (AMSL)

Popular Alternatives